Flag for Romania Weather past 2 weeks in Timișoara, Romania

Now
63 °F

Strong thunderstorms. Passing clouds.


Feels Like: 63 °F
Forecast: 56 / 72 °F
Wind: 8 mph from East

Location: Timisoara Airport

Current Time: May 25, 2015 at 12:53:54 AM

Latest Report: May 25, 2015 at 12:00 AM


Visibility: 2 mi

Pressure: 29.83 "Hg

Humidity: 94%

Dew point: 61 °F

Location of TimișoaraLocation

Historic Weather in Timișoara — Graph

°F

Timișoara temperature yesterday

Maximum temperature yesterday: 72 °F (at 5:00 PM)
Minimum temperature yesterday: 54 °F (at 4:00 AM)
Average temperature yesterday: 63 °F

Past Weeks' High & Low Weather Summary

 TemperatureHumidityPressure
High86 °F (May 19, 3:00 PM)100% (May 11, 3:30 AM)30.33 "Hg (May 11, 3:30 AM)
Low43 °F (May 12, 6:00 AM)19% (May 18, 6:00 PM)29.74 "Hg (May 14, 4:00 PM)
Average65 °F71%29.99 "Hg
* Reported Midnight between May 9 and May 10 — Midnight between May 24 and May 25, Timișoara, Weather by CustomWeather, © 2015

Note: Actual official high and low records may vary slightly from our data, if they occured in-between our weather recording intervals... More about our weather records

Advertising

Timișoara weather history for previous 24 hours

 ConditionsComfort  
Time TempWeatherWind HumidityBarometerVisibility
12:00 AM
Mon, May 25
63 °FStrong thunderstorms. Passing clouds.8 mph94%29.83 "Hg2 mi
11:30 PM
Sun, May 24
63 °FThunderstorms. Passing clouds.5 mph94%29.80 "HgN/A
11:00 PM63 °FPassing clouds.5 mph94%29.80 "HgN/A
10:30 PM63 °FPassing clouds.3 mph100%29.80 "HgN/A
10:00 PM64 °FScattered clouds.8 mph94%29.77 "HgN/A
9:30 PM63 °FThundershowers. Scattered clouds.7 mph100%29.83 "HgN/A
9:00 PM64 °FThunderstorms. Broken clouds.8 mph94%29.80 "Hg2 mi
8:30 PM66 °FThunderstorms. Broken clouds.13 mph94%29.83 "Hg2 mi
8:00 PM68 °FThunderstorms. Partly sunny.8 mph78%29.80 "HgN/A
7:30 PM68 °FThunderstorms. Scattered clouds.10 mph78%29.80 "HgN/A
7:00 PM68 °FScattered clouds.10 mph83%29.80 "HgN/A
6:30 PM68 °FScattered clouds.12 mph83%29.80 "HgN/A
6:00 PM68 °FThundershowers. Scattered clouds.12 mph83%29.80 "Hg5 mi
5:30 PM70 °FSprinkles. Scattered clouds.10 mph78%29.83 "HgN/A
5:00 PM72 °FPassing clouds.16 mph73%29.83 "HgN/A
4:30 PM70 °FPassing clouds.14 mph78%29.83 "HgN/A
4:00 PM70 °FPassing clouds.14 mph78%29.86 "HgN/A
3:30 PM68 °FPassing clouds.13 mph83%29.86 "HgN/A
3:00 PM68 °FPassing clouds.13 mph83%29.86 "HgN/A
2:30 PM68 °FPassing clouds.8 mph83%29.89 "HgN/A
2:00 PM66 °FPassing clouds.9 mph88%29.89 "HgN/A
1:30 PM66 °FScattered clouds.12 mph88%29.89 "HgN/A
1:00 PM68 °FSprinkles. Scattered clouds.9 mph78%29.89 "HgN/A
12:30 PM68 °FPassing clouds.9 mph78%29.89 "HgN/A
12:00 PM68 °FPassing clouds.10 mph78%29.92 "HgN/A
11:30 AM66 °FPassing clouds.9 mph83%29.89 "HgN/A
11:00 AM66 °FPassing clouds.9 mph83%29.89 "HgN/A
10:30 AM66 °FPassing clouds.8 mph83%29.89 "HgN/A
10:00 AM66 °FPassing clouds.9 mph88%29.89 "HgN/A
9:30 AM66 °FPassing clouds.9 mph88%29.89 "HgN/A
9:00 AM64 °FPassing clouds.8 mph88%29.89 "HgN/A
8:30 AM61 °FSunny.7 mph94%29.89 "Hg10 mi
8:00 AM61 °FSunny.6 mph94%29.89 "Hg10 mi
7:30 AM59 °FSunny.8 mph100%29.86 "Hg10 mi
7:00 AM57 °FSunny.7 mph100%29.86 "Hg10 mi
6:00 AM54 °FFog.6 mph100%29.86 "HgN/A
5:30 AM54 °FClear.3 mph100%29.86 "Hg10 mi
5:00 AM55 °FClear.3 mph94%29.86 "Hg10 mi
4:30 AM55 °FClear.3 mph94%29.89 "Hg10 mi
4:00 AM54 °FClear.6 mph100%29.89 "Hg10 mi
3:30 AM55 °FClear.5 mph100%29.89 "Hg10 mi
3:00 AM55 °FClear.5 mph100%29.89 "Hg10 mi
2:30 AM55 °FClear.3 mph100%29.89 "Hg10 mi
2:00 AM57 °FClear.5 mph100%29.89 "Hg10 mi
1:30 AM57 °FClear.5 mph100%29.89 "Hg10 mi
1:00 AM57 °FCool.5 mph94%29.89 "HgN/A
12:30 AM57 °FClear.3 mph94%29.89 "Hg10 mi
12:00 AM57 °FClear.3 mph94%29.89 "Hg10 mi
Weather by CustomWeather, © 2015

See weather overviewHow to use our weather pages